Regional Weather Roundup
Issued by NWS Goodland, KS

Home | Current Version | Previous Version | Graphics & Text | Print | Product List | Glossary On
Versions: 1 2 3 4 5 6 7 8 9 10 11 12 13 14 15 16 17 18 19 20 21 22 23 24 25 26 27 28 29 30 31 32 33 34 35 36 37 38 39 40 41 42 43 44 45 46 47 48 49 50
000
ASUS43 KGLD 301108
RWRGLD

GOODLAND FORECAST AREA HOURLY WEATHER ROUNDUP
NATIONAL WEATHER SERVICE GOODLAND KS
500 AM MDT FRI SEP 30 2016

...OFFICIAL OBSERVATIONS...

CITY           SKY/WX    TMP DP  RH WIND       PRES   REMARKS
GOODLAND KS    CLEAR     46  40  79 S14       30.22F
HILL CITY KS   CLEAR     41  39  93 CALM      30.29F
IMPERIAL NEB   CLOUDY    45  41  86 SE8       30.24F
MCCOOK NEB     CLEAR     45  42  89 E7        30.27F
AKRON CO       CLOUDY    46  39  76 SE5       30.20F
BURLINGTON CO  CLOUDY    47  38  71 SE12      30.21F
LIMON CO       CLOUDY    39  37  92 CALM      30.24S
$$

...UNOFFICIAL OBSERVATIONS...

CITY           SKY/WX    TMP DP  RH WIND       PRES   REMARKS
COLBY KS       CLEAR     46  45  93 SE9       30.26S
LENORA KS        N/A     45  32  60 MISG        N/A
NORTON KS      CLEAR     43  37  81 CALM      30.28S
SHARON SPRINGS   N/A     47  42  84 SE12        N/A
KIT CARSON CO    N/A     49  41  74 CALM        N/A
$$




USA.gov is the U.S. government's official web portal to all federal, state and local government web resources and services.